AQI (47)

Current Conditions for Foresthill, CA. Clear skies, Dry   
Visibility: 10 miles
Breezy            
Space WX Alerts: CONTINUED ALERT:  Electron 2MeV Integral Flux exceeded 1000pfu ( Latest Alert ) - Issue Time: 2018 Oct 19 1647 UTC

  Summary / Temperature 

Current Temperature
63.0°F
17.2°C
(24/hr Ago)
59.7°F
(Apparent temp)
54.5°F
Comfortable
Wind Chill Graphs
61.8°F 

63.0°F/ 17.2°C
 --- Virtual Temp: 64.4°F ---

 Temp Rate:

 24/hr Difference:

 Avg Running Temp:

 Todays High:

 Todays Low:

 Y-days High:

 Y-days Low:

 Todays WChill:

 Y-days WChill:

 Evapotranspiration:

-2.9°F/hr 

+3.3°F

64.3°F

75.2°F 2:45pm

55.6°F 7:43am

71.7°F 2:44pm

54.2°F 6:45am

54.5°F 7:54am

50.2°F 7:17am

0.119 in

115' Above Ground

 Temperature:

 6'AGL VRS 115'AGL:

 Avg Running Temp:

 Humidity:

 Todays High:

 Todays Low:

 Y-days High:

 Y-days Low:

70.0°F 

+7°F

69.5°F

21% 

76.0°F 2:16pm

60.0°F 5:28am

73.0°F 1:32pm

56.0°F 7:24am

Temp & Humidity Graphs

  Wind 

Wind Speed

 14.0 mph

Gusting to

 23.0 mph

Wind from E

97°  E

Moderate breeze

 Avg speed:

 Wind Run:

 Peak Gust:

  9.0 mph 

17.0 miles

  23.0 mph 8:19pm

  Almanac  

Moon age: 10 days,9 hours,39 minutes,80%

Waxing Gibbous
80%
Illuminated
10 days in cycle

 Moonrise:

 Moonset:

 Sunrise:

 Sunset:

 Solar Noon:

4:12pm

2:10am

7:18am

6:19pm

12:48pm

2min 31s less daylight tomorrow 

  Solar Radiation 

(Current Solar)
  No Sun Light
(Todays High)
 666 W/m2@12:42pm

Rain

 Rain Today:

 Rain Rate (/hr):

 Rain last hour:

 Rain Yesterday:

 This Month:

 Season Total:

12 Days Since Last Rain Day

0.00 in

0.000 in

0.00 in

0.00 in

0.92 in

0.92 in

Updated Time

Updated: 10/19/18  8:27pm

(Updated  sec ago)

Humidity & Barometer

 Humidity:

 Wetbulb:

 Dew Point:

 Barometer:

32% 

50.8°F 

32.7°F 

30.069 inHg 

 Baro Trend:  Steady 
Northern Calif
Preparedness
Fire 
Level 

    UV Index  

(Current UV)
0.0  None
(Todays High) @ 12:24pm
4.3   Medium

National Weather Service Forecast

Tonight

Tonight: Clear
Clear
Saturday

Saturday: Sunny
Sunny
Saturday
Night
Saturday Night: Clear
Clear
Sunday

Sunday: Sunny
Sunny
Sunday
Night
Sunday Night: Clear
Clear
Monday

Monday: Sunny
Sunny
Lo 58 °F ↑ Hi 76 °F ↓ Lo 55 °F Hi 74 °F Lo 53 °F Hi 72 °F

Foresthill Probe 2 Stats  
Foresthill Probe 2: is located on Thomas Street
at 3000 feet. The main Foresthill Weather site
is located on Melody ln at the 2860 foot elevation

Calm
62.8°F
17.1°C
Temp Rate:
-2.6°F
Calm
Gusting to
None
(Humidity)
35%
Calm
314°  
Updated: 18/10/18 - 18:42:12
 Todays High: 72.1°F 14:29
 Todays Low: 51.7°F 07:29
 Rain Today: 0.00 in
 Season Total: 0.63 in

Foresthill Wx: Monthly,Yearly, Highs and Lows 

Foresthill  
This Weather Data is coming from the main Foresthill
Weather site located on Melody ln at the 2860 foot
elevation
Not Foresthill Probe 2
Weather Data
Month
  High
Month
  Low
Year
High
Year
Low
Temp 76.9°F
10/2/18
48.1°F
10/5/18
93.9°F
8/10/18
21.9°F
2/23/18
Humidity 100%
10/5/18
9%
10/15/18
100%
1/8/18
9%
10/15/18
Heat Index 76.7°F
10/2/18
50.6°F
10/7/18
93.3°F
7/25/18
27.1°F
2/20/18
Wind Chill 76.9°F
10/2/18
44.2°F
10/5/18
93.9°F
8/10/18
9.2°F
2/23/18
Wind Gust 43 mph
10/14/18
0 mph
10/1/18
43 mph
3/1/18
0 mph
1/1/18
Barometer 30.19 in
10/19/18
29.75 in
10/9/18
30.55 in
1/27/18
29.60 in
6/16/18
ET 0.20 in
10/14/18
0.00 in
10/1/18
0.25 in
6/24/18
0.00 in
1/1/18
Dew Point 55.9°F
10/3/18
7.1°F
10/15/18
66.9°F
7/24/18
7.1°F
10/15/18
Pacific Satellite US Radar Satellite Imagery Sacramento,CA.  (click to enlarge)
NWS Weather Forecast - Summary
Updated: Friday, October 19, 2018 - 3:25pm PDT
Current Interstate Highway Conditions for I-80 & US-50

[I 80: IN THE SAN FRANCISCO BAY AREA - SOLANO CO]
no traffic restrictions are reported for this area.

[I 80: IN THE NORTHERN CALIFORNIA AREA & SIERRA NEVADA]
no traffic restrictions are reported for this area.

[US 50: IN THE SACRAMENTO VALLEY & THE LAKE TAHOE BASIN]
no traffic restrictions are reported for this area.
NWS Weather Forecast: Tonight and Saturday (Updated: Fri, 19-Oct-2018 4:01pm PDT)
Tonight

Tonight: Clear
Clear

Lo 58 °F ↑
NWS forecast: Clear. Low around 58, with temperatures rising to around 60 overnight. East northeast wind 7 to 12 mph.
Saturday

Saturday: Sunny
Sunny

Hi 76 °F ↓
NWS forecast: Sunny. High near 76, with temperatures falling to around 70 in the afternoon. South wind 5 to 9 mph.
YR.NO 10 Day Weather forecast
Last update: 10/19/2018 @ 12:38
Next update: 10/20/2018 @ 01:00
Provided by: 22
      Temperature Precipitation Pressure Wind  
Today
10/19/2018
19:00 00:00 61°F   30.05 inHg Light air from east-northeast 2 mph
    (Click to enlarge)
meteogram

    Forecast for next 9 days

      Temperature Precip Pressure Wind  
Saturday
10/20/2018
00:00 06:00 61°F   30.03 inHg Light breeze from east-northeast 5 mph
  06:00 12:00 54°F   30.04 inHg Light breeze from east-northeast 7 mph
  12:00 18:00 75°F   30.00 inHg Light breeze from southwest 5 mph
  18:00 00:00 66°F   29.96 inHg Light breeze from southwest 4 mph
      Temperature Precip Pressure Wind  
Sunday
10/21/2018
00:00 06:00 48°F   29.99 inHg Light breeze from east-northeast 4 mph
  06:00 12:00 45°F   29.98 inHg Light breeze from east-northeast 6 mph
  12:00 18:00 73°F   29.97 inHg Light breeze from west 4 mph
  18:00 00:00 64°F   29.93 inHg Light air from west-northwest 3 mph
      Temperature Precip Pressure Wind  
Monday
10/22/2018
00:00 06:00 46°F   29.96 inHg Light breeze from east-northeast 5 mph
  05:00 11:00 45°F   29.94 inHg Light breeze from east-northeast 7 mph
  11:00 17:00 72°F   29.96 inHg Light air from west 3 mph
  17:00 23:00 68°F   29.92 inHg Light breeze from west-southwest 4 mph
  23:00 05:00 46°F   29.97 inHg Light breeze from east-northeast 5 mph
      Temperature Precip Pressure Wind  
Tuesday
10/23/2018
05:00 11:00 43°F   29.99 inHg Light breeze from east-northeast 6 mph
  11:00 17:00 68°F   30.04 inHg Light air from southwest 2 mph
  17:00 23:00 66°F   30.00 inHg Light air from west-southwest 3 mph
  23:00 05:00 46°F   30.04 inHg Light breeze from east-northeast 5 mph
      Temperature Precip Pressure Wind  
Wednesday
10/24/2018
05:00 11:00 43°F   30.03 inHg Light breeze from east-northeast 6 mph
  11:00 17:00 68°F   30.06 inHg Light breeze from southwest 4 mph
  17:00 23:00 66°F   30.02 inHg Light air from west-southwest 3 mph
  23:00 05:00 46°F   30.07 inHg Light breeze from east-northeast 5 mph
      Temperature Precip Pressure Wind  
Thursday
10/25/2018
05:00 11:00 45°F   30.04 inHg Light breeze from east-northeast 6 mph
  11:00 17:00 70°F   30.08 inHg Calm from west 0 mph
  17:00 23:00 68°F   30.02 inHg Light air from west-southwest 3 mph
  23:00 05:00 48°F   30.03 inHg Light breeze from east-northeast 5 mph
      Temperature Precip Pressure Wind  
Friday
10/26/2018
05:00 11:00 46°F   30.00 inHg Light breeze from east-northeast 5 mph
  11:00 17:00 73°F   30.02 inHg Light air from west-northwest 3 mph
  17:00 23:00 72°F   29.94 inHg Light breeze from west 4 mph
  23:00 05:00 52°F   29.98 inHg Light breeze from east-northeast 4 mph
      Temperature Precip Pressure Wind  
Saturday
10/27/2018
05:00 11:00 50°F   29.95 inHg Light breeze from east-northeast 4 mph
  11:00 17:00 75°F   29.97 inHg Light air from west-southwest 2 mph
  17:00 23:00 72°F   29.92 inHg Light air from west-southwest 2 mph
  23:00 05:00 52°F   29.97 inHg Light breeze from east-northeast 4 mph
      Temperature Precip Pressure Wind  
Sunday
10/28/2018
05:00 11:00 54°F   29.94 inHg Light breeze from east-northeast 6 mph
  11:00 17:00 73°F   29.98 inHg Light breeze from south-southwest 6 mph
  17:00 23:00 66°F   29.94 inHg Light breeze from southwest 4 mph
  23:00 05:00 54°F   30.04 inHg Light air from east-southeast 3 mph

NOAA Local Storm Report
31 MILES SOUTH OF VALENTINE   ( More )
DATE
10/14/2018
TIME
7:00 AM
COUNTY
CHERRY
STATE
NE
GEOGRAPHIC
42.42N 100.55W
SOURCE
PUBLIC
SNOW MEASURED AT 5.5 INCH
delayed snow report. Melted to 0. 30 liquid.
How Close Are We To this Month's Temperature Record ?
Updated Friday, Oct 19, 2018- 8:20:01 PM

Current Temperature: 63.0°F

October's High: Temperature Record 90.8°F - Set on Mon, Oct 1, 2012 - 2:51:00 PM
We are currently 27.8°F Less than this Month's record High

October's Low: Temperature Record 38.8°F - Set on Tue, Oct 23, 2012 - 11:59:00 PM
We are currently 24.2°F More than this Month's record Low

Weather History For Friday, October 19, 2018


On this Day - In Weather History ...
Data courtesy of weatherforyou.com
powered by Cumulus v1.9.3 (1059)
Ambient Weather VWS v14.00
Top Contact Website Map Copyright © 2007 - 2018 Foresthillweather.com Never base important decisions on this or any weather information obtained from the Internet